Voltar ao catálogo

BREEZE-M R/B

AtivoHEO
NORAD 39009·ROCKET BODY·🇷🇺 Russia

Lançado Nov 20, 2012 de Baikonur Cosmodrome

Loading…

Próximas Passagens (próximas 24 horas)

TLE

AtualizadoSource: Space-Track

Época: Sep 13, 2026, 08:12 UTC

1 39009U 12065B   26256.34203551 -.00000136  00000-0  00000-0 0  9990
2 39009  30.7122  34.0533 6893644  33.9444 355.1242  2.23059038114014

Acompanhe BREEZE-M R/B em tempo real com AllMySat

Download on the App Store